Weather History for Iron Mountain, MI

Change the Weather History Date:

Saturday, December 28, 2013

  Actual Average Record
Temperature  
Mean Temperature 32 °F -  
Max Temperature 37 °F 26 °F 48 °F (1979)
Min Temperature 28 °F 6 °F -15 °F (1961)
Degree Days  
Heating Degree Days 32    
Moisture  
Dew Point 27 °F    
Average Humidity 86    
Maximum Humidity 96    
Minimum Humidity 70    
Precipitation  
Precipitation 0.00 in - - ()
Sea Level Pressure  
Sea Level Pressure 29.81 in    
Wind  
Wind Speed 6 mph (North)    
Max Wind Speed 21 mph    
Max Gust Speed 28 mph    
Visibility 7 miles    
Events Rain , Snow    
Averages and records for this station are not official NWS values.
T = Trace of Precipitation, MM = Missing Value Source: NWS Daily Summary

Daily Weather History Graph

Daily Weather History Graph

Search for Another Location

Airport:

Trip Planner

Search our weather history database for the weather conditions in past years. The results will help you decide how hot, cold, wet, or windy it might be!

Date:

Astronomy

Dec. 28, 2013 Rise Set
Actual Time 7:33 AM CST 4:15 PM CST
Civil Twilight 6:58 AM CST 4:49 PM CST
Nautical Twilight 6:21 AM CST 5:27 PM CST
Astronomical Twilight 5:44 AM CST 6:03 PM CST
Moon 3:02 AM CST (12/28) 1:12 PM CST (12/28)
Length of Visible Light 9h 50m
Length of Day
8h 41m
Waning Crescent, 19% of the Moon is Illuminated
Dec 28
Waning Crescent
Jan 1
New
Jan 7
First Quarter
Jan 15
Full
Jan 23
Last Quarter

Hourly Weather History & Observations

Time (CST) Temp. Windchill Dew Point Humidity Pressure Visibility Wind Dir Wind Speed Gust Speed Precip Events Conditions
12:54 AM 33.1 °F 26.1 °F 26.1 °F 75% 29.93 in 10.0 mi WNW 8.1 mph - N/A   Overcast
1:54 AM 33.1 °F 26.1 °F 27.0 °F 78% 29.95 in 10.0 mi NW 8.1 mph - N/A   Overcast
2:54 AM 33.1 °F - 27.0 °F 78% 29.94 in 10.0 mi Calm Calm - N/A   Overcast
3:01 AM 33.8 °F 30.8 °F 26.6 °F 75% 29.89 in 10.0 mi West 3.5 mph - N/A   Overcast
3:54 AM 32.0 °F - 27.0 °F 82% 29.94 in 10.0 mi Calm Calm - N/A   Overcast
4:54 AM 32.0 °F 28.7 °F 27.0 °F 82% 29.94 in 10.0 mi SW 3.5 mph - N/A   Overcast
5:54 AM 32.0 °F 26.4 °F 27.0 °F 82% 29.96 in 10.0 mi SSW 5.8 mph - N/A   Overcast
6:54 AM 30.9 °F 26.2 °F 27.0 °F 85% 29.96 in 10.0 mi South 4.6 mph - N/A   Overcast
7:33 AM 30.2 °F 25.4 °F 26.6 °F 86% 29.88 in 10.0 mi SSW 4.6 mph - N/A   Overcast
7:54 AM 30.0 °F 26.5 °F 26.1 °F 85% 29.93 in 10.0 mi South 3.5 mph - N/A   Overcast
8:54 AM 30.0 °F 26.5 °F 27.0 °F 88% 29.92 in 10.0 mi South 3.5 mph - N/A   Overcast
9:54 AM 30.0 °F 22.4 °F 27.0 °F 88% 29.90 in 10.0 mi South 8.1 mph - N/A   Overcast
10:54 AM 30.9 °F 22.8 °F 27.0 °F 85% 29.90 in 10.0 mi South 9.2 mph - N/A   Overcast
11:54 AM 32.0 °F 28.7 °F 28.0 °F 85% 29.85 in 10.0 mi South 3.5 mph - N/A   Overcast
12:54 PM 34.0 °F 31.0 °F 28.0 °F 79% 29.82 in 10.0 mi West 3.5 mph - N/A   Overcast
1:41 PM 35.6 °F - 28.4 °F 75% 29.77 in 10.0 mi Calm Calm - N/A   Overcast
1:54 PM 36.0 °F 33.3 °F 28.9 °F 76% 29.80 in 10.0 mi NNW 3.5 mph - N/A   Overcast
2:22 PM 37.4 °F 34.9 °F 28.4 °F 70% 29.74 in 10.0 mi NNE 3.5 mph - N/A   Partly Cloudy
2:54 PM 37.9 °F - 28.9 °F 70% 29.78 in 10.0 mi Calm Calm - N/A   Clear
3:54 PM 36.0 °F 33.3 °F 28.0 °F 73% 29.78 in 10.0 mi ESE 3.5 mph - N/A   Clear
4:54 PM 30.0 °F 25.2 °F 26.1 °F 85% 29.80 in 10.0 mi SE 4.6 mph - N/A   Partly Cloudy
5:09 PM 30.2 °F 25.4 °F 26.6 °F 86% 29.75 in 10.0 mi SE 4.6 mph - N/A   Mostly Cloudy
5:20 PM 30.2 °F 23.4 °F 26.6 °F 86% 29.75 in 8.0 mi SE 6.9 mph - N/A   Overcast
5:37 PM 30.2 °F 24.3 °F 26.6 °F 86% 29.75 in 6.0 mi SSE 5.8 mph - N/A   Overcast
5:54 PM 30.0 °F 23.2 °F 27.0 °F 88% 29.80 in 6.0 mi SE 6.9 mph - N/A   Overcast
6:09 PM 30.2 °F 23.4 °F 26.6 °F 86% 29.76 in 6.0 mi SE 6.9 mph - N/A   Overcast
6:54 PM 30.0 °F - 28.0 °F 92% 29.80 in 5.0 mi Calm Calm - N/A   Overcast
7:24 PM 30.2 °F 25.4 °F 28.4 °F 93% 29.74 in 4.0 mi North 4.6 mph - N/A   Overcast
7:54 PM 30.0 °F 25.2 °F 28.0 °F 92% 29.78 in 3.0 mi North 4.6 mph - N/A   Overcast
8:17 PM 30.2 °F 23.4 °F 28.4 °F 93% 29.72 in 4.0 mi North 6.9 mph - N/A   Overcast
8:24 PM 30.2 °F 24.3 °F 28.4 °F 93% 29.72 in 4.0 mi North 5.8 mph - N/A   Overcast
8:52 PM 30.2 °F 25.4 °F 28.4 °F 93% 29.73 in 2.5 mi NNW 4.6 mph - N/A   Overcast
8:54 PM 30.0 °F 25.2 °F 28.9 °F 96% 29.78 in 2.5 mi North 4.6 mph - N/A   Overcast
9:14 PM 30.2 °F 24.3 °F 28.4 °F 93% 29.73 in 2.5 mi North 5.8 mph - N/A   Overcast
9:32 PM 30.2 °F 26.7 °F 28.4 °F 93% 29.72 in 2.0 mi North 3.5 mph - N/A   Overcast
9:45 PM 30.2 °F 26.7 °F 28.4 °F 93% 29.72 in 1.8 mi North 3.5 mph - N/A   Overcast
9:54 PM 30.0 °F 24.1 °F 28.9 °F 96% 29.77 in 2.0 mi North 5.8 mph - N/A   Overcast
9:57 PM 30.2 °F 24.3 °F 28.4 °F 93% 29.72 in 2.0 mi North 5.8 mph - N/A   Overcast
10:10 PM 30.2 °F 25.4 °F 28.4 °F 93% 29.72 in 1.5 mi North 4.6 mph - N/A   Overcast
10:54 PM 30.9 °F 26.2 °F 30.0 °F 96% 29.78 in 1.5 mi NNW 4.6 mph - N/A   Overcast
11:15 PM 30.2 °F 17.8 °F 26.6 °F 86% 29.74 in 2.5 mi NNE 19.6 mph 27.6 mph 0.00 in Snow Light Snow
11:17 PM 30.2 °F 17.4 °F 26.6 °F 86% 29.73 in 3.0 mi North 20.7 mph 27.6 mph 0.00 in Snow Light Snow
11:26 PM 28.4 °F 15.4 °F 24.8 °F 86% 29.74 in 7.0 mi NNE 19.6 mph 26.5 mph 0.00 in   Overcast
11:54 PM 28.0 °F 14.6 °F 24.1 °F 85% 29.80 in 4.0 mi North 20.7 mph 25.3 mph 0.00 in Rain Light Freezing Rain